Regional Weather Roundup
Issued by NWS New Orleans/Baton Rouge, LA

Home | Current Version | Previous Version | Text Only | Print | Product List | Glossary On
Versions: 1 2 3 4 5 6 7 8 9 10 11 12 13 14 15 16 17 18 19 20 21 22 23 24 25 26 27 28
000
ASUS44 KLIX 211312
RWRLIX
NEW ORLEANS REGIONAL WEATHER ROUNDUP
NATIONAL WEATHER SERVICE NEW ORLEANS LA
700 AM CST SAT JAN 21 2017

NOTE: "FAIR" INDICATES FEW OR NO CLOUDS BELOW 12,000 FEET WITH NO
      SIGNIFICANT WEATHER AND/OR OBSTRUCTIONS TO VISIBILITY.
      SKY/WX - SKY CONDITION AND SIGNIFICANT WEATHER.
      TMP - AIR TEMPERATURE.     DP    - DEWPOINT TEMPERATURE.
      RH  - RELATIVE HUMIDITY.   PRES  - PRESSURE.
      HI  - HEAT INDEX.          WCI   - WIND CHILL INDEX.

*  THESE STATIONS ARE NOT NWS OR FAA STATIONS AND ARE NOT UNDER
   NWS QUALITY CONTROL.

LAZ038-040-048-061>063-065>067-069-211400-
SOUTHEAST LOUISIANA

CITY           SKY/WX    TMP DP  RH WIND       PRES   REMARKS
N.O. AUDUBON   NOT AVBL
N.O. INTL ARPT RAIN      60  58  92 NE13G22   29.75S FOG
N.O. LAKEFRONT HVY RAIN  60  59  96 N24G36    29.77R
N.O. DOWNTOWN* LGT RAIN  62  59  90 N14G32    29.76R
RESERVE*       LGT RAIN  63  60  91 N6        29.74R
SLIDELL        HVY RAIN  59  58  96 NE7       29.76F FOG
BATON ROUGE    PTCLDY    61  59  93 NE7       29.70S
BOOTHVILLE     CLOUDY    69  69 100 SW13      29.74R FOG
BELLE CHASSE   CLOUDY    72  70  93 SW12      29.71R
BOGALUSA*      CLOUDY    63  58  85 E7        29.75S
GALLIANO*      PTSUNNY   72  68  88 S14       29.71S
NEW ROADS*     PTSUNNY   60  58  93 E5        29.71S
GONZALES*        N/A     63  60  90 E3        29.71S
HAMMOND*       CLOUDY    61  55  82 E5        29.72F
HOUMA*         CLOUDY    72  72 100 S12       29.71R FOG
PORT FOURCHON* CLOUDY    72  70  94 S9        29.73R FOG

$$

MSZ070-080>082-211400-
SOUTHERN MISSISSIPPI

CITY           SKY/WX    TMP DP  RH WIND       PRES   REMARKS
MCCOMB         CLOUDY    59  56  89 CALM      29.70R
GULFPORT       RAIN      63  60  90 NW12      29.79R FOG
BILOXI         LGT RAIN  66  63  88 VRB6G31   29.75R
PASCAGOULA     CLOUDY    70  67  90 S12G21    29.73S
STENNIS ARPT*  TSTM      61  57  88 N21G32    29.77

$$

COASTAL OBSERVATIONS
LAKE AND NEARSHORE STATIONS

STATION/POSITION TIME  TEMP    WIND        PRES    WAVE
                       AIR SEA DIR/SP/G            HT/PER
                 (UTC) (F)     (DEG/KT/KT) (MB)    (FT/S)
PASCAGOULA       1248   68     210/ 13/ 16 1006.7
WAVELAND YACHT   1248   60 66  340/ 17/ 24 1009.2
GRAND ISLE       1248   70 68  200/  8/ 12 1006.7
SOUTHWEST PASS   1248          220/  8/  9   N/A
NEW CANAL        1248   59 59   30/ 19/ 23 1006.9
SHELL BEACH      1248   72 68  190/ 14/ 22 1006.2

OFFSHORE STATIONS

STATION/POSITION TIME  TEMP    WIND        PRES    WAVE
                       AIR SEA DIR/SP/G            HT/PER
                 (UTC) (F)     (DEG/KT/KT) (MB)    (FT/S)

$$





USA.gov is the U.S. government's official web portal to all federal, state and local government web resources and services.